Flag for U.S.A. Weather past 2 weeks in Stamford, Connecticut, U.S.A.

Now
61 °F

Scattered clouds.


Feels Like: 61 °F
Forecast: 55 / 72 °F
Wind: 5 mph from Southeast

Location: Westchester County Airport

Current Time: Sep 20, 2014 at 10:17:44 AM

Latest Report: Sep 20, 2014 at 8:56 AM


Visibility: 9 mi

Pressure: 30.30 "Hg

Humidity: 81%

Dew point: 55 °F

Location of StamfordLocation

Historic Weather in Stamford — Graph

°F

Stamford temperature yesterday

Maximum temperature yesterday: 61 °F (at 1:56 PM)
Minimum temperature yesterday: 49 °F (at 6:56 AM)
Average temperature yesterday: 55 °F

Past Weeks' High & Low Weather Summary

 TemperatureHumidityPressure
High89 °F (Sep 6, 3:56 PM)97% (Sep 5, 11:56 PM)30.39 "Hg (Sep 5, 11:56 PM)
Low49 °F (Sep 14, 3:56 AM)32% (Sep 18, 3:56 PM)29.80 "Hg (Sep 6, 3:56 PM)
Average64 °F71%30.10 "Hg
* Reported Sep 5 8:56 AM — Sep 20 8:56 AM, Stamford, Weather by CustomWeather, © 2014

Note: Actual official high and low records may vary slightly from our data, if they occured in-between our weather recording intervals... More about our weather records

Advertising

Stamford weather history for previous 24 hours

 ConditionsComfort  
Time TempWeatherWind HumidityBarometerVisibility
8:56 AM
Sep 20
61 °FScattered clouds.5 mph81%30.30 "Hg9 mi
7:56 AM57 °FSunny.3 mph83%30.30 "Hg9 mi
6:56 AM53 °FPartly cloudy.No wind86%30.32 "Hg7 mi
5:56 AM52 °FClear.No wind89%30.32 "Hg9 mi
4:56 AM54 °FMostly cloudy.No wind86%30.33 "Hg10 mi
3:56 AM52 °FOvercast.No wind86%30.32 "Hg10 mi
2:56 AM51 °FPassing clouds.No wind86%30.33 "Hg10 mi
1:56 AM51 °FClear.No wind86%30.33 "Hg10 mi
12:56 AM51 °FPassing clouds.3 mph80%30.34 "Hg10 mi
11:56 PM
Sep 19
53 °FPassing clouds.7 mph77%30.35 "Hg10 mi
10:56 PM50 °FPassing clouds.No wind86%30.39 "Hg10 mi
9:56 PM52 °FClear.No wind80%30.39 "Hg10 mi
8:56 PM53 °FClear.3 mph74%30.38 "Hg10 mi
7:56 PM52 °FSunny.3 mph75%30.37 "Hg10 mi
6:56 PM57 °FPassing clouds.No wind60%30.35 "Hg10 mi
5:56 PM60 °FSunny.5 mph52%30.34 "Hg10 mi
4:56 PM61 °FPassing clouds.7 mph50%30.34 "Hg10 mi
3:56 PM61 °FSunny.7 mph50%30.34 "Hg10 mi
2:56 PM61 °FSunny.7 mph48%30.35 "Hg10 mi
1:56 PM61 °FScattered clouds.8 mph46%30.34 "Hg10 mi
12:56 PM60 °FScattered clouds.3 mph44%30.35 "Hg10 mi
11:56 AM58 °FScattered clouds.3 mph47%30.34 "Hg10 mi
10:56 AM57 °FPassing clouds.7 mph47%30.34 "Hg10 mi
Weather by CustomWeather, © 2014

See weather overviewHow to use our weather pages